sat.trackr.live / text

‹ back to catalog

STARLINK-11511 [DTC]

NORAD 62468 · 2024-254G

PAYLOAD ACTIVE UNKNOWN

§ Identity

Operator
Country
US
Launch date
2024-12-31
Launch site
AFETR
Launch vehicle
Mass (kg)
RCS (m²)

Purposes: comms

External: N2YO · Heavens-Above · Gunter

§ Orbital elements

Epoch: 2026-05-25T00:08:40.820064Z

Period
91.67 min
Inclination
42.9997°
Eccentricity
0.0002213
Mean motion
15.70904026 rev/d
Perigee alt
354.8 km
Apogee alt
357.8 km
Semi-major
6,734.4 km
B*
1.2788e-3
RAAN
122.9852°
Arg perigee
267.7342°
Mean anomaly
92.3272°
Rev number
8,140

§ Raw data

STARLINK-11511 [DTC]1 62468U 24254G   26145.00602801  .00167438  00000+0  12788-2 0  99942 62468  42.9997 122.9852 0002213 267.7342  92.3272 15.70904026 81408

JSON: /api/v1/satellites/62468 · /tle

For live sub-satellite position, see the globe view (requires WebGL).

§ Visibility from observer

Set your observer location to see the next 7 days of passes ≥ 10°. The values pass through the URL so the page stays shareable.

No JS? Fill the form by hand. The geolocation button needs JavaScript.